Regional Weather Roundup
Issued by NWS

Home | Current Version | Previous Version | Text Only | Print | Product List | Glossary Off
Versions: 1 2 3 4 5 6 7 8 9 10 11 12 13 14 15 16 17 18 19 20 21 22 23 24 25 26 27 28 29 30 31 32 33 34 35 36 37 38 39 40 41 42 43 44 45 46 47 48 49 50

000
ASUS45 KSLC 251510
RWRUT

UTAH REGIONAL WEATHER ROUNDUP
NATIONAL WEATHER SERVICE SALT LAKE CITY UT
900 AM MDT TUE APR 25 2017

UTZ001>011-023>025-251600-

NORTHERN UTAH

CITY           SKY/WX    TMP DP  RH WIND       PRES   REMARKS
BRIGHAM CITY   CLOUDY    43  35  72 N10       29.80R
DUGWAY         PTSUNNY   42  38  88 N6        29.83R
HILL AFB       LGT RAIN  37  36  93 W6        29.78R WCI  33
LOGAN          LGT RAIN  41  36  82 SW6       29.78R
OGDEN          CLOUDY    40  37  89 SW9       29.78R WCI  34
SALT LAKE CITY LGT RAIN  41  39  93 NW13      29.79R
TOOELE VALLEY  CLOUDY    41  37  87 E7        29.82R
WENDOVER       MOSUNNY   45  27  49 NW21      29.85R
HEBER CITY     LGT SNOW  34  32  93 CALM      29.75R VSB 1
WEST JORDAN    CLOUDY    43  42  97 W8        29.81R

$$

UTZ011>015-024>027-251600-

CENTRAL/NORTHEAST UTAH

CITY           SKY/WX    TMP DP  RH WIND       PRES   REMARKS
PROVO AIRPORT  LGT RAIN  43  37  81 N14       29.80R
MOAB/CANYONLAN SUNNY     51  27  39 W9        29.66S
DELTA          CLOUDY    41  34  75 N14G20    29.83R
PRICE          MOSUNNY   45  29  53 NW8       29.71R
ROOSEVELT      CLOUDY    45  30  57 N6        29.73R
VERNAL         CLOUDY    44  31  60 NE5       29.71R

$$

UTZ013>016-019>022-027-251600-

SOUTHERN UTAH

CITY           SKY/WX    TMP DP  RH WIND       PRES   REMARKS
BRYCE CANYON   SUNNY     39  24  55 NW17G23   29.79R WCI  30
CEDAR CITY     MOSUNNY   44  32  62 NW8       29.81R
MILFORD        MOSUNNY   47  32  56 N10       29.80R
ST GEORGE      CLOUDY    61  24  24 NW17G29   29.76R
HANKSVILLE     MOSUNNY   52  28  40 NW9       29.72F
BLANDING       CLOUDY    46  29  52 W8        29.77S

$$

REGIONAL REPORTS     COLORADO/ARIZONA

CITY           SKY/WX    TMP DP  RH WIND       PRES   REMARKS
CRAIG, CO      CLOUDY    35  32  88 CALM      29.71S
GRAND JUNCTION CLOUDY    49  38  65 S7        29.68S
RIFLE, CO      CLOUDY    43  38  82 CALM      29.70S
MONTROSE, CO   CLOUDY    46  34  62 SE9       29.70S
CORTEZ, CO     LGT RAIN  42  37  82 W5        29.73S
COLORADO CITY    N/A     54  25  32 NW14G22   29.81R
PAGE, AZ       MOSUNNY   59  26  28 NW10      29.69R
GRAND CANYON   PTSUNNY   51  21  30 NW9G28    29.79R
KINGMAN, AZ    SUNNY     64  19  17 N21G26    29.78R
FLAGSTAFF, AZ  MOSUNNY   49  30  48 SW13      29.80R

$$

REGIONAL REPORTS    NEVADA/IDAHO/WYOMING

CITY           SKY/WX    TMP DP  RH WIND       PRES   REMARKS
LAS VEGAS, NV  PTSUNNY   68  18  14 NW21G38   29.76R
ELY, NY        PTSUNNY   36  28  73 N3        29.89R
ELKO, NV       MOSUNNY   39  26  59 NE8       29.94R WCI  33
POCATELLO, ID  CLOUDY    38  36  92 W20       29.80R WCI  28
BURLEY, ID     LGT RAIN  41  32  70 W24G39    29.81R
FORT BRIDGER,  PTSUNNY   35  35 100 W7        29.75F WCI  29
EVANSTON, WY   CLOUDY    32  32 100 SW7       29.74R WCI  26
ROCK SPRINGS,  MOSUNNY   38  30  73 W15       29.69R WCI  29
KEMMERER, WY     N/A     32  28  86 NW13G20   29.74R WCI  22

$$



USA.gov is the U.S. government's official web portal to all federal, state and local government web resources and services.